This demonstration page uses our WeatherBlox Daily Observations layout. Learn more.

Left ArrowRight Arrow

Hourly Observations for May 22, 2015

Temp ( °F °C ) Dew Point ( °F °C ) Humidity (%) Winds ( mph kmh ) Pressure ( in mb ) Visibility ( mi km ) Precip ( " mm )
12:53 am 00:53 Clear 42 5.6 40 4.4 92 92 Calm 30.14 1021 10 16 0.00 0.00
1:53 am 01:53 Clear 42 5.6 41 5 96 96 Calm 30.14 1021 10 16 0.00 0.00
2:53 am 02:53 Clear 42 5.6 41 5 96 96 Calm 30.14 1021 10 16 0.00 0.00
3:53 am 03:53 Clear 42 5.6 41 5 96 96 Calm 30.14 1021 10 16 0.00 0.00
4:53 am 04:53 Clear with Mist and Fog 40 4.4 39 3.9 97 97 Calm 30.15 1021 6 10 0.00 0.00
5:53 am 05:53 Clear 38 3.3 37 2.8 97 97 Calm 30.17 1022 8 13 0.00 0.00
6:53 am 06:53 Sunny with Mist and Fog 40 4.4 39 3.9 97 97 Calm 30.19 1022 4 6 0.00 0.00
7:53 am 07:53 Sunny 50 10 46 7.8 86 86 Calm 30.21 1023 10 16 0.00 0.00
8:53 am 08:53 Sunny 54 12.2 46 7.8 75 75 W 7 11 30.22 1023 10 16 0.00 0.00
9:53 am 09:53 Sunny 59 15 46 7.8 62 62 VRB 6 9 30.22 1024 10 16 0.00 0.00
10:53 am 10:53 Sunny 64 17.8 48 8.9 56 56 SW 6 9 30.23 1024 10 16 0.00 0.00
11:53 am 11:53 Sunny 69 20.6 48 8.9 47 47 VRB 6 9 30.22 1023 10 16 0.00 0.00
12:53 pm 12:53 Sunny 72 22.2 49 9.4 44 44 VRB 5 7 30.21 1023 10 16 0.00 0.00
1:53 pm 13:53 Mostly Sunny 74 23.3 49 9.4 41 41 W 9 15 30.20 1023 10 16 0.00 0.00
2:53 pm 14:53 Partly Cloudy 75 23.9 49 9.4 40 40 SW 9 15 30.20 1023 10 16 0.00 0.00
3:53 pm 15:53 Partly Cloudy 76 24.4 47 8.3 36 36 W 8 13 30.19 1023 10 16 0.00 0.00
4:53 pm 16:53 Mostly Sunny 74 23.3 46 7.8 37 37 W 8 13 30.20 1023 10 16 0.00 0.00
5:53 pm 17:53 Sunny 75 23.9 48 8.9 39 39 W 6 9 30.20 1023 10 16 0.00 0.00
6:53 pm 18:53 Mostly Cloudy 74 23.3 47 8.3 38 38 WSW 7 11 30.21 1023 10 16 0.00 0.00
7:53 pm 19:53 Sunny 72 22.2 46 7.8 40 40 WNW 6 9 30.21 1023 10 16 0.00 0.00
8:53 pm 20:53 Mostly Clear 63 17.2 50 10 63 63 Calm 30.23 1024 10 16 0.00 0.00
9:53 pm 21:53 Clear 57 13.9 49 9.4 74 74 NNW 3 6 30.25 1024 10 16 0.00 0.00
10:53 pm 22:53 Clear 53 11.7 48 8.9 83 83 Calm 30.28 1025 10 16 0.00 0.00
11:53 pm 23:53 Clear 51 10.6 48 8.9 89 89 Calm 30.29 1026 10 16 0.00 0.00

Powered by AerisWeather